| time (UTC) | temp C | wind direction | speed KPH | gust KPH | rain 1hr cm | rain 24hr cm | rain mn cm | humidity % | barometer mb |
| 20260502140110 | 10 | 360 | 0.0 | 0.0 | 0.00 | 0.51 | 0.51 | 91 | 1011.7 |
| 20260502130116 | 9 | 360 | 0.0 | 0.0 | 0.00 | 0.51 | 0.51 | 96 | 1012.0 |
| 20260502123108 | 8 | 360 | 0.0 | 0.0 | 0.03 | 0.51 | 0.51 | 96 | 1012.1 |
| 20260502121615 | 8 | 360 | 0.0 | 0.0 | 0.05 | 0.51 | 0.51 | 96 | 1012.2 |
| 20260502120122 | 7 | 360 | 0.0 | 0.0 | 0.05 | 0.51 | 0.51 | 96 | 1012.3 |
| 20260502114606 | 7 | 360 | 0.0 | 0.0 | 0.05 | 0.51 | 0.51 | 96 | 1012.3 |
| 20260502113113 | 7 | 360 | 0.0 | 0.0 | 0.05 | 0.48 | 0.48 | 96 | 1012.5 |
| 20260502111618 | 7 | 360 | 0.0 | 0.0 | 0.08 | 0.46 | 0.46 | 96 | 1012.5 |
| 20260502110106 | 7 | 360 | 0.0 | 0.0 | 0.25 | 0.46 | 0.46 | 96 | 1012.4 |
| 20260502104612 | 7 | 360 | 0.0 | 0.0 | 0.28 | 0.46 | 0.46 | 95 | 1012.0 |
| 20260502103119 | 7 | 360 | 0.0 | 0.0 | 0.25 | 0.43 | 0.43 | 95 | 1011.9 |
| 20260502101607 | 7 | 360 | 0.0 | 0.0 | 0.23 | 0.38 | 0.38 | 95 | 1012.2 |
| 20260502100113 | 7 | 360 | 0.0 | 0.0 | 0.05 | 0.20 | 0.20 | 95 | 1012.1 |
| 20260502090121 | 7 | 360 | 0.0 | 0.0 | 0.10 | 0.15 | 0.15 | 94 | 1011.7 |
| 20260502080107 | 7 | 360 | 0.0 | 0.0 | 0.03 | 0.05 | 0.05 | 93 | 1011.8 |
| 20260502070117 | 7 | 360 | 0.0 | 0.0 | 0.03 | 0.03 | 0.03 | 90 | 1011.8 |
| 20260502064622 | 7 | 360 | 0.0 | 0.0 | 0.00 | 0.00 | 0.00 | 89 | 1012.0 |
| 20260502063113 | 7 | 360 | 0.0 | 0.0 | 0.00 | 0.00 | 0.00 | 88 | 1011.7 |
| 20260502061614 | 8 | 360 | 0.0 | 0.0 | 0.00 | 0.00 | 0.00 | 89 | 1011.6 |
| 20260502060122 | 8 | 360 | 0.0 | 0.0 | 0.00 | 0.00 | 0.00 | 87 | 1011.9 |
| 20260502054604 | 8 | 360 | 0.0 | 0.0 | 0.00 | 0.00 | 0.00 | 86 | 1011.9 |
| 20260502053112 | 8 | 360 | 0.0 | 0.0 | 0.00 | 0.00 | 0.00 | 83 | 1011.8 |
| 20260502051615 | 8 | 360 | 0.0 | 0.0 | 0.00 | 0.00 | 0.00 | 83 | 1011.5 |
| 20260502050106 | 8 | 360 | 0.0 | 0.0 | 0.00 | 0.00 | 0.00 | 82 | 1012.0 |
| 20260502044608 | 8 | 360 | 0.0 | 0.0 | 0.00 | 0.00 | 0.00 | 82 | 1012.0 |
| 20260502043116 | 8 | 360 | 0.0 | 0.0 | 0.00 | 0.00 | 0.00 | 79 | 1011.6 |
| 20260502041603 | 8 | 360 | 0.0 | 0.0 | 0.00 | 0.00 | 0.00 | 81 | 1011.5 |
| 20260502040112 | 8 | 360 | 0.0 | 0.0 | 0.00 | 0.00 | 0.00 | 79 | 1011.6 |
| 20260502034615 | 8 | 360 | 0.0 | 0.0 | 0.00 | 0.00 | 0.00 | 79 | 1011.4 |
| 20260502033103 | 8 | 360 | 0.0 | 0.0 | 0.00 | 0.00 | 0.00 | 78 | 1011.6 |
| 20260502031606 | 8 | 360 | 0.0 | 0.0 | 0.00 | 0.00 | 0.00 | 76 | 1011.7 |
| 20260502030111 | 8 | 360 | 0.0 | 0.0 | 0.00 | 0.00 | 0.00 | 75 | 1011.8 |
| 20260502024506 | 8 | 360 | 0.0 | 0.0 | 0.00 | 0.00 | 0.00 | 75 | 1011.5 |
| 20260502023102 | 8 | 360 | 0.0 | 0.0 | 0.00 | 0.00 | 0.00 | 73 | 1011.5 |
| 20260502021619 | 8 | 360 | 0.0 | 0.0 | 0.00 | 0.00 | 0.00 | 71 | 1011.5 |
| 20260502020115 | 9 | 360 | 0.0 | 0.0 | 0.00 | 0.00 | 0.00 | 72 | 1011.6 |
| 20260502014514 | 9 | 360 | 0.0 | 0.0 | 0.00 | 0.00 | 0.00 | 71 | 1011.5 |
| 20260502013108 | 9 | 360 | 0.0 | 0.0 | 0.00 | 0.00 | 0.00 | 70 | 1011.5 |
| 20260502011616 | 10 | 360 | 0.0 | 0.0 | 0.00 | 0.00 | 0.00 | 66 | 1011.3 |
| 20260502010010 | 10 | 360 | 0.0 | 0.0 | 0.00 | 0.00 | 0.00 | 67 | 1011.1 |
| 20260502004612 | 10 | 360 | 0.0 | 0.0 | 0.00 | 0.00 | 0.00 | 69 | 1010.9 |
| 20260502003112 | 10 | 360 | 0.0 | 0.0 | 0.00 | 0.00 | 0.00 | 65 | 1010.8 |
| 20260502001619 | 11 | 360 | 0.0 | 0.0 | 0.00 | 0.00 | 0.00 | 59 | 1010.6 |
| 20260502000010 | 12 | 360 | 0.0 | 0.0 | 0.00 | 0.00 | 0.00 | 54 | 1010.3 |
| 20260501234609 | 13 | 360 | 0.0 | 0.0 | 0.00 | 0.00 | 0.00 | 46 | 1010.2 |
| 20260501233115 | 13 | 360 | 0.0 | 0.0 | 0.00 | 0.00 | 0.00 | 44 | 1010.0 |
| 20260501231602 | 14 | 360 | 0.0 | 0.0 | 0.00 | 0.00 | 0.00 | 42 | 1009.8 |
| 20260501230114 | 15 | 360 | 0.0 | 0.0 | 0.00 | 0.00 | 0.00 | 42 | 1009.7 |
| 20260501224504 | 15 | 360 | 0.0 | 0.0 | 0.00 | 0.00 | 0.00 | 41 | 1009.6 |
| 20260501223107 | 16 | 360 | 0.0 | 0.0 | 0.00 | 0.00 | 0.00 | 35 | 1009.4 |
| 20260501221612 | 16 | 360 | 0.0 | 0.0 | 0.00 | 0.00 | 0.00 | 38 | 1009.4 |
| 20260501220119 | 16 | 360 | 0.0 | 0.0 | 0.00 | 0.00 | 0.00 | 36 | 1009.5 |
| 20260501214606 | 16 | 360 | 0.0 | 0.0 | 0.00 | 0.00 | 0.00 | 35 | 1009.5 |
| 20260501213112 | 16 | 360 | 0.0 | 0.0 | 0.00 | 0.00 | 0.00 | 36 | 1009.6 |
| 20260501211504 | 17 | 360 | 0.0 | 1.6 | 0.00 | 0.00 | 0.00 | 35 | 1009.4 |
| 20260501210105 | 16 | 360 | 0.0 | 3.2 | 0.00 | 0.00 | 0.00 | 35 | 1009.4 |
| 20260501204616 | 16 | 360 | 0.0 | 1.6 | 0.00 | 0.00 | 0.00 | 34 | 1009.4 |
| 20260501203119 | 16 | 360 | 0.0 | 29.0 | 0.00 | 0.00 | 0.00 | 33 | 1009.2 |
| 20260501201613 | 17 | 360 | 0.0 | 16.1 | 0.00 | 0.00 | 0.00 | 36 | 1009.3 |
| 20260501200110 | 17 | 360 | 0.0 | 0.0 | 0.00 | 0.00 | 0.00 | 35 | 1009.3 |
| 20260501194615 | 16 | 360 | 4.8 | 24.1 | 0.00 | 0.00 | 0.00 | 33 | 1009.5 |
| 20260501193103 | 16 | 360 | 0.0 | 0.0 | 0.00 | 0.00 | 0.00 | 35 | 1009.5 |
| 20260501191609 | 16 | 360 | 0.0 | 0.0 | 0.00 | 0.00 | 0.00 | 35 | 1009.6 |
| 20260501190113 | 16 | 360 | 0.0 | 12.9 | 0.00 | 0.00 | 0.00 | 36 | 1009.8 |
| 20260501184504 | 16 | 360 | 0.0 | 19.3 | 0.00 | 0.00 | 0.00 | 38 | 1010.2 |
| 20260501183105 | 16 | 360 | 0.0 | 14.5 | 0.00 | 0.00 | 0.00 | 33 | 1010.3 |
| 20260501181608 | 15 | 360 | 0.0 | 19.3 | 0.00 | 0.00 | 0.00 | 39 | 1010.4 |
| 20260501180117 | 15 | 360 | 0.0 | 4.8 | 0.00 | 0.00 | 0.00 | 38 | 1010.5 |
| 20260501174506 | 15 | 360 | 0.0 | 0.0 | 0.00 | 0.03 | 0.00 | 37 | 1010.5 |
| 20260501173110 | 15 | 360 | 0.0 | 25.7 | 0.00 | 0.03 | 0.00 | 38 | 1010.5 |
| 20260501171613 | 16 | 360 | 0.0 | 6.4 | 0.00 | 0.03 | 0.00 | 36 | 1010.3 |
| 20260501170004 | 15 | 360 | 0.0 | 14.5 | 0.00 | 0.03 | 0.00 | 39 | 1010.6 |
| 20260501164606 | 14 | 360 | 0.0 | 14.5 | 0.00 | 0.05 | 0.00 | 36 | 1010.4 |
| 20260501163113 | 14 | 360 | 0.0 | 14.5 | 0.00 | 0.05 | 0.00 | 43 | 1010.6 |
| 20260501161618 | 14 | 360 | 0.0 | 6.4 | 0.00 | 0.05 | 0.00 | 42 | 1010.5 |
| 20260501160110 | 14 | 360 | 0.0 | 3.2 | 0.00 | 0.05 | 0.00 | 42 | 1010.7 |
| 20260501154614 | 13 | 360 | 0.0 | 12.9 | 0.00 | 0.05 | 0.00 | 44 | 1010.8 |
| 20260501153006 | 13 | 360 | 3.2 | 19.3 | 0.00 | 0.05 | 0.00 | 44 | 1011.1 |
| 20260501151605 | 13 | 360 | 0.0 | 6.4 | 0.00 | 0.05 | 0.00 | 45 | 1011.1 |
| 20260501150112 | 12 | 360 | 0.0 | 0.0 | 0.00 | 0.05 | 0.00 | 50 | 1011.2 |
| 20260501144614 | 12 | 28 | 0.0 | 0.0 | 0.00 | 0.08 | 0.00 | 52 | 1011.3 |
| 20260501143104 | 11 | 360 | 0.0 | 0.0 | 0.00 | 0.08 | 0.00 | 50 | 1011.4 |